This demonstration page uses our WeatherBlox Daily Observations layout. Learn more.

Left ArrowRight Arrow

Hourly Observations for May 14, 2019

Temp ( °F °C ) Dew Point ( °F °C ) Humidity (%) Winds ( mph kmh ) Pressure ( in mb ) Visibility ( mi km ) Precip ( " mm )
12:15 am 00:15 Partly Cloudy 43 6 43 6 100 100 N N/A 30.03 1017 10 16.0934 N/A
12:35 am 00:35 Partly Cloudy 43 6 43 6 100 100 N N/A 30.03 1017 10 16.0934 N/A
12:56 am 00:56 Mostly Cloudy 43 6 43 6 100 100 N N/A 30.03 1017 7 11.26538 N/A
1:15 am 01:15 Partly Cloudy 43 6 43 6 100 100 N N/A 30.03 1017 5 8.0467 N/A
1:35 am 01:35 Partly Cloudy 41 5 41 5 100 100 N N/A 30.04 1017 7 11.26538 N/A
1:55 am 01:55 Clear 39 4 39 4 100 100 WSW 3 6 30.04 1017 5 8.0467 N/A
2:15 am 02:15 Mostly Cloudy 39 4 39 4 100 100 N N/A 30.03 1017 1.75 2.816345 N/A
2:35 am 02:35 Mostly Cloudy 39 4 39 4 100 100 W 3 6 30.03 1017 0.75 1.207005 N/A
2:55 am 02:55 Mostly Cloudy 39 4 39 4 100 100 N N/A 30.03 1017 0.75 1.207005 N/A
3:15 am 03:15 Clear 41 5 41 5 100 100 N N/A 30.03 1017 7 11.26538 N/A
3:35 am 03:35 Clear 39 4 39 4 100 100 N N/A 30.03 1017 4 6.43736 N/A
3:55 am 03:55 Clear 39 4 39 4 100 100 N N/A 30.03 1017 4 6.43736 N/A
4:16 am 04:16 Mostly Cloudy 39 4 39 4 100 100 N N/A 30.04 1017 1.25 2.011675 N/A
4:35 am 04:35 Clear 37 3 37 3 100 100 N N/A 30.04 1017 4 6.43736 N/A
4:55 am 04:55 Clear 37 3 37 3 100 100 N N/A 30.04 1017 4 6.43736 N/A
5:15 am 05:15 Clear 39 4 39 4 100 100 E 3 6 30.04 1017 3 4.82802 N/A
5:35 am 05:35 Clear 37 3 37 3 100 100 N N/A 30.05 1018 3 4.82802 N/A
5:55 am 05:55 Clear 36 2 36 2 100 100 N N/A 30.06 1018 2.5 4.02335 N/A
6:15 am 06:15 Mostly Cloudy 36 2 36 2 100 100 N N/A 30.07 1018 0.75 1.207005 N/A
6:35 am 06:35 Mostly Cloudy 37 3 37 3 100 100 N N/A 30.07 1018 0.75 1.207005 N/A
6:55 am 06:55 Mostly Cloudy 36 2 36 2 100 100 N N/A 30.08 1019 0.25 0.402335 N/A
7:15 am 07:15 Mostly Cloudy 37 3 37 3 100 100 N N/A 30.07 1018 0.25 0.402335 N/A
7:35 am 07:35 Sunny 39 4 39 4 100 100 N N/A 30.08 1019 4 6.43736 N/A
7:55 am 07:55 Sunny 43 6 43 6 100 100 N N/A 30.08 1019 3 4.82802 N/A
8:15 am 08:15 Sunny 45 7 45 7 100 100 N N/A 30.09 1019 5 8.0467 N/A
8:35 am 08:35 Sunny 46 8 46 8 100 100 N N/A 30.09 1019 7 11.26538 N/A
8:55 am 08:55 Sunny 50 10 48 9 94 94 N N/A 30.08 1019 10 16.0934 N/A
9:15 am 09:15 Sunny 52 11 48 9 88 88 N N/A 30.08 1019 10 16.0934 N/A
9:35 am 09:35 Sunny 54 12 46 8 77 77 N N/A 30.07 1018 10 16.0934 N/A
9:55 am 09:55 Sunny 55 13 46 8 72 72 N N/A 30.08 1019 10 16.0934 N/A
10:15 am 10:15 Sunny 55 13 45 7 67 67 N N/A 30.08 1019 10 16.0934 N/A
10:35 am 10:35 Sunny 57 14 46 8 67 67 N N/A 30.08 1019 10 16.0934 N/A
10:55 am 10:55 Sunny 59 15 46 8 63 63 N N/A 30.07 1018 10 16.0934 N/A
11:16 am 11:16 Sunny 59 15 46 8 63 63 N N/A 30.07 1018 10 16.0934 N/A
11:35 am 11:35 Sunny 61 16 46 8 59 59 N N/A 30.07 1018 10 16.0934 N/A
11:55 am 11:55 Sunny 61 16 46 8 59 59 ESE 3 6 30.07 1018 10 16.0934 N/A
12:15 pm 12:15 Sunny 63 17 46 8 56 56 NNE 5 7 30.06 1018 10 16.0934 N/A
12:35 pm 12:35 Sunny 63 17 46 8 56 56 ESE 3 6 30.06 1018 10 16.0934 N/A
12:55 pm 12:55 Sunny 63 17 46 8 56 56 SSW 5 7 30.06 1018 10 16.0934 N/A
1:15 pm 13:15 Sunny 63 17 48 9 59 59 W 7 11 30.06 1018 10 16.0934 N/A
1:35 pm 13:35 Partly Cloudy 64 18 48 9 56 56 NW 7 11 30.04 1017 10 16.0934 N/A
1:55 pm 13:55 Mostly Cloudy 64 18 46 8 52 52 NNW 6 9 30.04 1017 10 16.0934 N/A
2:15 pm 14:15 Partly Cloudy 64 18 45 7 49 49 NNW 6 9 30.04 1017 10 16.0934 N/A
2:35 pm 14:35 Partly Cloudy 64 18 46 8 52 52 NNW 7 11 30.03 1017 10 16.0934 N/A
2:55 pm 14:55 Mostly Cloudy 64 18 45 7 49 49 S 3 6 30.03 1017 10 16.0934 N/A
3:15 pm 15:15 Partly Cloudy 66 19 48 9 52 52 SW 3 6 30.02 1017 10 16.0934 N/A
3:35 pm 15:35 Mostly Cloudy 66 19 46 8 49 49 WSW 8 13 30.01 1016 10 16.0934 N/A
3:55 pm 15:55 Mostly Cloudy 66 19 45 7 46 46 WNW 3 6 30 1016 10 16.0934 N/A
4:15 pm 16:15 Partly Cloudy 66 19 48 9 52 52 W 3 6 30 1016 10 16.0934 N/A
4:35 pm 16:35 Mostly Cloudy 66 19 46 8 49 49 WSW 3 6 29.99 1016 10 16.0934 N/A
4:55 pm 16:55 Mostly Cloudy 66 19 48 9 52 52 WNW 6 9 29.99 1016 10 16.0934 N/A
5:15 pm 17:15 Partly Cloudy 64 18 48 9 56 56 W 6 9 29.99 1016 10 16.0934 N/A
5:36 pm 17:36 Partly Cloudy 68 20 48 9 49 49 W 10 17 29.99 1016 10 16.0934 N/A
5:55 pm 17:55 Partly Cloudy 68 20 48 9 49 49 NNW 5 7 29.98 1015 10 16.0934 N/A
6:15 pm 18:15 Partly Cloudy 64 18 48 9 56 56 WNW 7 11 29.98 1015 10 16.0934 N/A
6:35 pm 18:35 Partly Cloudy 66 19 46 8 49 49 W 9 15 29.98 1015 10 16.0934 N/A
6:55 pm 18:55 Sunny 66 19 46 8 49 49 WNW 12 19 29.98 1015 10 16.0934 N/A
7:15 pm 19:15 Partly Cloudy 66 19 46 8 49 49 W 9 15 29.98 1015 10 16.0934 N/A
7:35 pm 19:35 Partly Cloudy 66 19 46 8 49 49 NW 12 19 29.98 1015 10 16.0934 N/A
7:55 pm 19:55 Partly Cloudy 64 18 48 9 56 56 W 7 11 29.98 1015 10 16.0934 N/A
8:16 pm 20:16 Sunny 63 17 48 9 59 59 WNW 5 7 29.99 1015 10 16.0934 N/A
8:35 pm 20:35 Partly Cloudy 61 16 46 8 59 59 WNW 6 9 30 1016 10 16.0934 N/A
8:55 pm 20:55 Clear 61 16 46 8 59 59 NW 3 6 30 1016 10 16.0934 N/A
9:15 pm 21:15 Clear 55 13 48 9 77 77 N N/A 30.01 1016 10 16.0934 N/A
9:35 pm 21:35 Clear 55 13 46 8 72 72 N N/A 30.01 1016 10 16.0934 N/A
9:55 pm 21:55 Clear 52 11 50 10 94 94 N N/A 30.03 1017 10 16.0934 N/A
10:15 pm 22:15 Clear 52 11 50 10 94 94 N N/A 30.03 1017 10 16.0934 N/A
10:35 pm 22:35 Clear 52 11 50 10 94 94 N N/A 30.04 1017 10 16.0934 N/A
10:55 pm 22:55 Clear 50 10 50 10 100 100 N N/A 30.04 1017 10 16.0934 N/A
11:15 pm 23:15 Clear 50 10 48 9 94 94 N N/A 30.04 1017 10 16.0934 N/A
11:35 pm 23:35 Clear 50 10 48 9 94 94 NE 3 6 30.04 1017 10 16.0934 N/A
11:55 pm 23:55 Clear 48 9 48 9 100 100 N N/A 30.04 1017 10 16.0934 N/A

Powered by AerisWeather